| time (UTC) | temp C | wind direction | speed KPH | gust KPH | rain 1hr cm | rain 24hr cm | rain mn cm | humidity % | barometer mb |
| 20260507175952 | 20 | 81 | 8.0 | 14.5 | 0.00 | 0.28 | 0.00 | 59 | 1018.4 |
| 20260507174447 | 19 | 9 | 6.4 | 16.1 | 0.00 | 0.28 | 0.00 | 62 | 1018.5 |
| 20260507172950 | 18 | 56 | 6.4 | 12.9 | 0.00 | 0.28 | 0.00 | 63 | 1018.7 |
| 20260507171447 | 18 | 47 | 8.0 | 16.1 | 0.00 | 0.28 | 0.00 | 63 | 1018.9 |
| 20260507165954 | 18 | 58 | 6.4 | 14.5 | 0.00 | 0.28 | 0.00 | 65 | 1019.1 |
| 20260507162950 | 17 | 64 | 6.4 | 16.1 | 0.00 | 0.28 | 0.00 | 66 | 1020.0 |
| 20260507161447 | 17 | 110 | 6.4 | 12.9 | 0.00 | 0.28 | 0.00 | 69 | 1020.1 |
| 20260507155951 | 17 | 104 | 6.4 | 11.3 | 0.00 | 0.28 | 0.00 | 73 | 1020.1 |
| 20260507154447 | 16 | 71 | 4.8 | 11.3 | 0.00 | 0.28 | 0.00 | 72 | 1020.1 |
| 20260507152950 | 16 | 73 | 4.8 | 9.7 | 0.00 | 0.28 | 0.00 | 72 | 1020.0 |
| 20260507145952 | 16 | 95 | 4.8 | 9.7 | 0.00 | 0.28 | 0.00 | 76 | 1020.4 |
| 20260507144447 | 16 | 78 | 4.8 | 9.7 | 0.00 | 0.36 | 0.00 | 76 | 1020.3 |
| 20260507142949 | 15 | 87 | 4.8 | 11.3 | 0.00 | 0.36 | 0.00 | 78 | 1020.5 |
| 20260507141447 | 15 | 78 | 3.2 | 8.0 | 0.00 | 0.36 | 0.00 | 80 | 1020.6 |
| 20260507135950 | 15 | 65 | 0.0 | 4.8 | 0.00 | 0.36 | 0.00 | 87 | 1020.7 |
| 20260507131447 | 11 | 4 | 0.0 | 1.6 | 0.00 | 0.36 | 0.00 | 95 | 1020.9 |
| 20260507125952 | 10 | 60 | 0.0 | 0.0 | 0.00 | 0.36 | 0.00 | 96 | 1020.9 |
| 20260507122950 | 9 | 176 | 0.0 | 1.6 | 0.00 | 0.36 | 0.00 | 97 | 1020.9 |
| 20260507121447 | 8 | 63 | 0.0 | 3.2 | 0.00 | 0.36 | 0.00 | 97 | 1020.8 |
| 20260507115953 | 8 | 52 | 0.0 | 0.0 | 0.00 | 0.36 | 0.00 | 96 | 1020.9 |
| 20260507114447 | 8 | 53 | 0.0 | 0.0 | 0.00 | 0.36 | 0.00 | 95 | 1021.0 |
| 20260507112950 | 9 | 53 | 0.0 | 0.0 | 0.00 | 0.36 | 0.00 | 95 | 1020.8 |
| 20260507111447 | 9 | 53 | 0.0 | 0.0 | 0.00 | 0.36 | 0.00 | 95 | 1020.5 |
| 20260507105952 | 10 | 51 | 0.0 | 1.6 | 0.00 | 0.36 | 0.00 | 95 | 1020.4 |
| 20260507104447 | 10 | 7 | 0.0 | 1.6 | 0.00 | 0.36 | 0.00 | 95 | 1020.3 |
| 20260507102950 | 10 | 32 | 0.0 | 4.8 | 0.00 | 0.36 | 0.00 | 95 | 1020.0 |
| 20260507101448 | 10 | 10 | 0.0 | 3.2 | 0.00 | 0.36 | 0.00 | 95 | 1019.5 |
| 20260507095952 | 10 | 340 | 0.0 | 4.8 | 0.00 | 0.36 | 0.00 | 95 | 1019.4 |
| 20260507094447 | 10 | 349 | 1.6 | 6.4 | 0.00 | 0.36 | 0.00 | 96 | 1019.0 |
| 20260507092949 | 10 | 11 | 0.0 | 3.2 | 0.00 | 0.36 | 0.00 | 96 | 1018.8 |
| 20260507091446 | 10 | 23 | 0.0 | 3.2 | 0.00 | 0.36 | 0.00 | 96 | 1018.8 |
| 20260507085953 | 10 | 255 | 0.0 | 0.0 | 0.00 | 0.36 | 0.00 | 95 | 1018.6 |
| 20260507082949 | 10 | 16 | 0.0 | 0.0 | 0.00 | 0.36 | 0.00 | 94 | 1018.2 |
| 20260507081447 | 11 | 15 | 0.0 | 1.6 | 0.00 | 0.36 | 0.00 | 94 | 1018.0 |
| 20260507075951 | 11 | 54 | 0.0 | 1.6 | 0.00 | 0.36 | 0.00 | 94 | 1017.8 |
| 20260507074447 | 11 | 39 | 0.0 | 1.6 | 0.00 | 0.36 | 0.00 | 93 | 1018.1 |
| 20260507065951 | 11 | 18 | 0.0 | 0.0 | 0.00 | 0.36 | 0.00 | 94 | 1017.6 |
| 20260507064447 | 11 | 18 | 0.0 | 0.0 | 0.00 | 0.36 | 0.00 | 92 | 1017.5 |
| 20260507061446 | 12 | 84 | 0.0 | 0.0 | 0.00 | 0.36 | 0.00 | 91 | 1017.1 |
| 20260507055952 | 12 | 84 | 0.0 | 3.2 | 0.00 | 0.36 | 0.00 | 90 | 1017.1 |
| 20260507054448 | 12 | 103 | 1.6 | 4.8 | 0.00 | 0.36 | 0.00 | 89 | 1017.2 |
| 20260507052950 | 12 | 70 | 1.6 | 4.8 | 0.00 | 0.36 | 0.00 | 89 | 1017.1 |
| 20260507051448 | 12 | 79 | 1.6 | 6.4 | 0.00 | 0.36 | 0.00 | 89 | 1017.1 |
| 20260507045955 | 12 | 96 | 0.0 | 4.8 | 0.00 | 0.36 | 0.00 | 90 | 1017.1 |
| 20260507044447 | 13 | 68 | 1.6 | 8.0 | 0.00 | 0.36 | 0.36 | 89 | 1017.0 |
| 20260507042950 | 12 | 81 | 3.2 | 6.4 | 0.00 | 0.36 | 0.36 | 90 | 1017.0 |
| 20260507041447 | 12 | 68 | 0.0 | 3.2 | 0.00 | 0.36 | 0.36 | 91 | 1017.2 |
| 20260507035952 | 12 | 88 | 0.0 | 3.2 | 0.00 | 0.36 | 0.36 | 92 | 1017.2 |
| 20260507034447 | 12 | 69 | 1.6 | 4.8 | 0.00 | 0.36 | 0.36 | 92 | 1017.2 |
| 20260507032950 | 13 | 64 | 0.0 | 3.2 | 0.00 | 0.36 | 0.36 | 92 | 1017.2 |
| 20260507031448 | 13 | 62 | 0.0 | 1.6 | 0.00 | 0.36 | 0.36 | 93 | 1017.1 |
| 20260507025954 | 13 | 71 | 0.0 | 1.6 | 0.00 | 0.36 | 0.36 | 94 | 1017.0 |
| 20260507024447 | 13 | 64 | 0.0 | 1.6 | 0.00 | 0.36 | 0.36 | 95 | 1016.8 |
| 20260507015952 | 14 | 103 | 0.0 | 1.6 | 0.00 | 0.36 | 0.36 | 93 | 1015.9 |
| 20260507011447 | 15 | 99 | 0.0 | 3.2 | 0.00 | 0.36 | 0.36 | 90 | 1014.8 |
| 20260507005953 | 15 | 105 | 1.6 | 4.8 | 0.00 | 0.36 | 0.36 | 89 | 1014.7 |
| 20260507002950 | 16 | 148 | 1.6 | 6.4 | 0.00 | 0.36 | 0.36 | 86 | 1014.5 |
| 20260507001447 | 17 | 108 | 1.6 | 4.8 | 0.00 | 0.36 | 0.36 | 84 | 1014.5 |
| 20260506235952 | 17 | 113 | 0.0 | 3.2 | 0.00 | 0.36 | 0.36 | 81 | 1014.2 |
| 20260506234447 | 16 | 119 | 1.6 | 4.8 | 0.00 | 0.36 | 0.36 | 83 | 1014.3 |
| 20260506232950 | 16 | 151 | 0.0 | 1.6 | 0.00 | 0.36 | 0.36 | 83 | 1014.2 |
| 20260506225954 | 16 | 67 | 1.6 | 6.4 | 0.00 | 0.36 | 0.36 | 84 | 1013.9 |
| 20260506224448 | 16 | 81 | 1.6 | 8.0 | 0.28 | 0.36 | 0.36 | 83 | 1013.9 |
| 20260506222950 | 16 | 90 | 1.6 | 4.8 | 0.28 | 0.36 | 0.36 | 86 | 1013.7 |
| 20260506221447 | 15 | 160 | 0.0 | 4.8 | 0.28 | 0.36 | 0.36 | 89 | 1013.9 |
| 20260506215951 | 15 | 188 | 1.6 | 4.8 | 0.28 | 0.36 | 0.36 | 88 | 1014.2 |
| 20260506214448 | 16 | 340 | 3.2 | 8.0 | 0.00 | 0.08 | 0.08 | 77 | 1014.5 |
| 20260506212949 | 16 | 61 | 6.4 | 14.5 | 0.00 | 0.08 | 0.08 | 78 | 1014.0 |
| 20260506211447 | 16 | 55 | 3.2 | 9.7 | 0.00 | 0.08 | 0.08 | 79 | 1014.0 |
| 20260506205954 | 16 | 335 | 6.4 | 12.9 | 0.00 | 0.08 | 0.08 | 77 | 1014.2 |
| 20260506204447 | 16 | 344 | 6.4 | 9.7 | 0.00 | 0.08 | 0.08 | 78 | 1014.2 |
| 20260506202950 | 15 | 41 | 4.8 | 11.3 | 0.00 | 0.08 | 0.08 | 79 | 1014.5 |
| 20260506201447 | 15 | 57 | 6.4 | 16.1 | 0.00 | 0.08 | 0.08 | 79 | 1014.5 |
| 20260506194448 | 15 | 42 | 8.0 | 12.9 | 0.00 | 0.08 | 0.08 | 81 | 1014.9 |
| 20260506192950 | 14 | 29 | 6.4 | 14.5 | 0.00 | 0.08 | 0.08 | 83 | 1015.1 |
| 20260506191447 | 13 | 40 | 6.4 | 12.9 | 0.00 | 0.08 | 0.08 | 85 | 1015.4 |
| 20260506185954 | 13 | 51 | 3.2 | 11.3 | 0.00 | 0.08 | 0.08 | 85 | 1015.5 |
| 20260506184447 | 12 | 356 | 3.2 | 8.0 | 0.00 | 0.08 | 0.08 | 88 | 1015.8 |
| 20260506181447 | 12 | 12 | 4.8 | 9.7 | 0.00 | 0.08 | 0.08 | 87 | 1015.8 |